Time,TemperatureF,DewpointF,PressureIn,WindDirection,WindDirectionDegrees,WindSpeedMPH,WindSpeedGustMPH,Humidity,HourlyPrecipIn,Conditions,Clouds,dailyrainin,SoftwareType,DateUTC
2013-06-16 00:01:00,77.3,74.8,30.08,East,98,0.0,0.0,92,0.00,,,0.00,Wunderground v.1.15,2013-06-16 04:01:00,
2013-06-16 00:05:00,77.3,74.8,30.09,East,98,0.0,0.0,92,0.00,,,0.00,Wunderground v.1.15,2013-06-16 04:05:00,
2013-06-16 00:10:00,77.2,74.7,30.08,East,99,0.0,0.0,92,0.00,,,0.00,Wunderground v.1.15,2013-06-16 04:10:00,
2013-06-16 00:15:00,77.2,74.7,30.08,East,99,0.0,0.0,92,0.00,,,0.00,Wunderground v.1.15,2013-06-16 04:15:00,
2013-06-16 00:25:00,77.3,74.8,30.08,East,101,0.0,0.0,92,0.00,,,0.00,Wunderground v.1.15,2013-06-16 04:25:00,
2013-06-16 00:30:00,77.4,74.9,30.08,East,96,0.0,0.0,92,0.00,,,0.00,Wunderground v.1.15,2013-06-16 04:30:00,
2013-06-16 00:35:00,77.4,74.9,30.08,East,94,0.0,1.0,92,0.00,,,0.00,Wunderground v.1.15,2013-06-16 04:35:00,
2013-06-16 00:40:00,77.4,74.9,30.08,East,86,0.0,1.0,92,0.00,,,0.00,Wunderground v.1.15,2013-06-16 04:40:00,
2013-06-16 00:48:00,77.4,75.0,30.08,East,91,0.0,2.0,92,0.00,,,0.00,weatherlink.com 1.10,2013-06-16 04:48:00,
2013-06-16 00:55:00,77.4,74.9,30.08,East,94,0.0,1.0,92,0.00,,,0.00,Wunderground v.1.15,2013-06-16 04:55:00,
2013-06-16 01:00:00,77.4,74.9,30.08,East,95,0.0,0.0,92,0.00,,,0.00,Wunderground v.1.15,2013-06-16 05:00:00,
2013-06-16 01:05:00,77.3,74.8,30.08,East,91,0.0,0.0,92,0.00,,,0.00,Wunderground v.1.15,2013-06-16 05:05:00,
2013-06-16 01:10:00,77.3,74.8,30.08,East,91,0.0,0.0,92,0.00,,,0.00,Wunderground v.1.15,2013-06-16 05:10:00,
2013-06-16 01:20:00,77.4,74.9,30.08,East,95,0.0,0.0,92,0.00,,,0.00,Wunderground v.1.15,2013-06-16 05:20:00,
2013-06-16 01:25:00,77.5,75.0,30.08,East,96,0.0,0.0,92,0.00,,,0.00,Wunderground v.1.15,2013-06-16 05:25:00,
2013-06-16 01:30:00,77.6,75.1,30.09,East,96,0.0,0.0,92,0.00,,,0.00,Wunderground v.1.15,2013-06-16 05:30:00,
2013-06-16 01:35:00,77.7,75.2,30.08,East,96,0.0,0.0,92,0.00,,,0.00,Wunderground v.1.15,2013-06-16 05:35:00,
2013-06-16 01:40:00,77.8,75.3,30.08,East,98,0.0,0.0,92,0.00,,,0.00,Wunderground v.1.15,2013-06-16 05:40:00,
2013-06-16 01:45:00,77.7,75.2,30.08,East,98,0.0,0.0,92,0.00,,,0.00,Wunderground v.1.15,2013-06-16 05:45:00,
2013-06-16 01:53:00,77.6,75.0,30.08,East,98,0.0,1.0,92,0.00,,,0.00,weatherlink.com 1.10,2013-06-16 05:53:00,
2013-06-16 02:00:00,77.4,74.9,30.08,East,97,0.0,0.0,92,0.00,,,0.00,Wunderground v.1.15,2013-06-16 06:00:00,
2013-06-16 02:05:00,77.4,74.9,30.08,East,97,0.0,0.0,92,0.00,,,0.00,Wunderground v.1.15,2013-06-16 06:05:00,
2013-06-16 02:10:00,77.3,74.8,30.08,East,98,0.0,0.0,92,0.00,,,0.00,Wunderground v.1.15,2013-06-16 06:10:00,
2013-06-16 02:20:00,77.2,75.0,30.07,East,98,0.0,0.0,93,0.00,,,0.00,Wunderground v.1.15,2013-06-16 06:20:00,
2013-06-16 02:25:00,77.2,75.0,30.07,East,97,0.0,0.0,93,0.00,,,0.00,Wunderground v.1.15,2013-06-16 06:25:00,
2013-06-16 02:30:00,77.1,74.9,30.07,East,97,0.0,0.0,93,0.00,,,0.00,Wunderground v.1.15,2013-06-16 06:30:00,
2013-06-16 02:35:00,77.0,74.8,30.07,East,97,0.0,0.0,93,0.00,,,0.00,Wunderground v.1.15,2013-06-16 06:35:00,
2013-06-16 02:40:00,77.0,74.8,30.07,East,99,0.0,0.0,93,0.00,,,0.00,Wunderground v.1.15,2013-06-16 06:40:00,
2013-06-16 02:45:00,77.0,74.8,30.07,East,97,0.0,0.0,93,0.00,,,0.00,Wunderground v.1.15,2013-06-16 06:45:00,
2013-06-16 02:55:00,76.8,74.9,30.07,East,97,0.0,0.0,94,0.00,,,0.00,Wunderground v.1.15,2013-06-16 06:55:00,
2013-06-16 03:00:00,76.8,74.9,30.07,East,97,0.0,0.0,94,0.00,,,0.00,Wunderground v.1.15,2013-06-16 07:00:00,
2013-06-16 03:05:00,76.7,74.8,30.07,East,98,0.0,0.0,94,0.00,,,0.00,Wunderground v.1.15,2013-06-16 07:05:00,
2013-06-16 03:10:00,76.7,74.8,30.07,East,98,0.0,0.0,94,0.00,,,0.00,Wunderground v.1.15,2013-06-16 07:10:00,
2013-06-16 03:20:00,76.6,74.7,30.07,East,97,0.0,0.0,94,0.00,,,0.00,Wunderground v.1.15,2013-06-16 07:20:00,
2013-06-16 03:25:00,76.6,75.1,30.06,East,96,0.0,0.0,95,0.00,,,0.00,Wunderground v.1.15,2013-06-16 07:25:00,
2013-06-16 03:30:00,76.6,75.1,30.06,East,96,0.0,0.0,95,0.00,,,0.00,Wunderground v.1.15,2013-06-16 07:30:00,
2013-06-16 03:35:00,76.5,75.0,30.06,East,86,0.0,0.0,95,0.00,,,0.00,Wunderground v.1.15,2013-06-16 07:35:00,
2013-06-16 03:40:00,76.5,75.0,30.06,ENE,77,0.0,0.0,95,0.00,,,0.00,Wunderground v.1.15,2013-06-16 07:40:00,
2013-06-16 03:45:00,76.4,74.9,30.06,ENE,77,0.0,0.0,95,0.00,,,0.00,Wunderground v.1.15,2013-06-16 07:45:00,
2013-06-16 03:55:00,76.2,74.7,30.06,ENE,77,0.0,0.0,95,0.00,,,0.00,Wunderground v.1.15,2013-06-16 07:55:00,
2013-06-16 04:00:00,76.2,74.7,30.07,ENE,77,0.0,0.0,95,0.00,,,0.00,Wunderground v.1.15,2013-06-16 08:00:00,
2013-06-16 04:05:00,76.2,75.0,30.07,ENE,76,0.0,0.0,96,0.00,,,0.00,Wunderground v.1.15,2013-06-16 08:05:00,
2013-06-16 04:10:00,76.1,74.9,30.07,ENE,77,0.0,0.0,96,0.00,,,0.00,Wunderground v.1.15,2013-06-16 08:10:00,
2013-06-16 04:15:00,76.1,74.9,30.07,ENE,77,0.0,0.0,96,0.00,,,0.00,Wunderground v.1.15,2013-06-16 08:15:00,
2013-06-16 04:25:00,76.1,74.9,30.07,ENE,77,0.0,0.0,96,0.00,,,0.00,Wunderground v.1.15,2013-06-16 08:25:00,
2013-06-16 04:30:00,76.1,74.9,30.07,ENE,77,0.0,0.0,96,0.00,,,0.00,Wunderground v.1.15,2013-06-16 08:30:00,
2013-06-16 04:35:00,76.1,74.9,30.07,ENE,77,0.0,0.0,96,0.00,,,0.00,Wunderground v.1.15,2013-06-16 08:35:00,
2013-06-16 04:45:00,76.1,75.2,30.07,ENE,77,0.0,0.0,97,0.00,,,0.00,Wunderground v.1.15,2013-06-16 08:45:00,
2013-06-16 04:50:00,76.0,75.1,30.07,ENE,76,0.0,0.0,97,0.00,,,0.00,Wunderground v.1.15,2013-06-16 08:50:00,
2013-06-16 04:55:00,75.9,74.7,30.06,ENE,76,0.0,0.0,96,0.00,,,0.00,Wunderground v.1.15,2013-06-16 08:55:00,
2013-06-16 05:05:00,75.8,74.9,30.07,ENE,76,0.0,0.0,97,0.00,,,0.00,Wunderground v.1.15,2013-06-16 09:05:00,
2013-06-16 05:10:00,75.7,74.8,30.07,ENE,77,0.0,0.0,97,0.00,,,0.00,Wunderground v.1.15,2013-06-16 09:10:00,
2013-06-16 05:15:00,75.6,74.7,30.06,ENE,77,0.0,0.0,97,0.00,,,0.00,Wunderground v.1.15,2013-06-16 09:15:00,
2013-06-16 05:20:00,75.6,74.7,30.06,ENE,77,0.0,0.0,97,0.00,,,0.00,Wunderground v.1.15,2013-06-16 09:20:00,
2013-06-16 05:25:00,75.5,74.6,30.07,ENE,77,0.0,0.0,97,0.00,,,0.00,Wunderground v.1.15,2013-06-16 09:25:00,
2013-06-16 05:30:00,75.5,74.6,30.06,ENE,77,0.0,0.0,97,0.00,,,0.00,Wunderground v.1.15,2013-06-16 09:30:00,
2013-06-16 05:35:00,75.4,74.5,30.07,ENE,77,0.0,0.0,97,0.00,,,0.00,Wunderground v.1.15,2013-06-16 09:35:00,
2013-06-16 05:42:00,75.3,74.0,30.07,ENE,77,0.0,0.0,97,0.00,,,0.00,weatherlink.com 1.10,2013-06-16 09:42:00,
2013-06-16 05:50:00,75.3,74.4,30.07,ENE,77,0.0,0.0,97,0.00,,,0.00,Wunderground v.1.15,2013-06-16 09:50:00,
2013-06-16 05:55:00,75.2,74.3,30.07,ENE,77,0.0,0.0,97,0.00,,,0.00,Wunderground v.1.15,2013-06-16 09:55:00,
2013-06-16 06:05:00,75.1,74.2,30.07,ENE,77,0.0,0.0,97,0.00,,,0.00,Wunderground v.1.15,2013-06-16 10:05:00,
2013-06-16 06:14:00,75.0,74.0,30.08,ENE,77,0.0,0.0,97,0.00,,,0.00,weatherlink.com 1.10,2013-06-16 10:14:00,
2013-06-16 06:20:00,75.0,74.1,30.08,ENE,76,0.0,0.0,97,0.00,,,0.00,Wunderground v.1.15,2013-06-16 10:20:00,
2013-06-16 06:25:00,75.0,74.1,30.08,ENE,77,0.0,0.0,97,0.00,,,0.00,Wunderground v.1.15,2013-06-16 10:25:00,
2013-06-16 06:30:00,74.9,74.0,30.08,ENE,77,0.0,0.0,97,0.00,,,0.00,Wunderground v.1.15,2013-06-16 10:30:00,
2013-06-16 06:35:00,74.9,74.3,30.08,East,81,0.0,0.0,98,0.00,,,0.00,Wunderground v.1.15,2013-06-16 10:35:00,
2013-06-16 06:45:00,75.0,74.4,30.08,East,79,0.0,0.0,98,0.00,,,0.00,Wunderground v.1.15,2013-06-16 10:45:00,
2013-06-16 06:50:00,75.1,74.5,30.08,East,79,0.0,0.0,98,0.00,,,0.00,Wunderground v.1.15,2013-06-16 10:50:00,
2013-06-16 06:55:00,75.2,74.6,30.08,East,79,0.0,0.0,98,0.00,,,0.00,Wunderground v.1.15,2013-06-16 10:55:00,
2013-06-16 07:00:00,75.3,74.7,30.09,East,79,0.0,0.0,98,0.00,,,0.00,Wunderground v.1.15,2013-06-16 11:00:00,
2013-06-16 07:05:00,75.4,74.8,30.09,East,79,0.0,0.0,98,0.00,,,0.00,Wunderground v.1.15,2013-06-16 11:05:00,
2013-06-16 07:15:00,75.8,75.2,30.09,East,81,0.0,0.0,98,0.00,,,0.00,Wunderground v.1.15,2013-06-16 11:15:00,
2013-06-16 07:20:00,75.9,75.3,30.09,East,81,0.0,0.0,98,0.00,,,0.00,Wunderground v.1.15,2013-06-16 11:20:00,
2013-06-16 07:25:00,76.1,75.5,30.09,East,82,0.0,0.0,98,0.00,,,0.00,Wunderground v.1.15,2013-06-16 11:25:00,
2013-06-16 07:30:00,76.3,75.7,30.09,East,82,0.0,0.0,98,0.00,,,0.00,Wunderground v.1.15,2013-06-16 11:30:00,
2013-06-16 07:35:00,76.5,75.6,30.09,East,98,0.0,0.0,97,0.00,,,0.00,Wunderground v.1.15,2013-06-16 11:35:00,
2013-06-16 07:40:00,76.7,75.8,30.09,East,99,0.0,2.0,97,0.00,,,0.00,Wunderground v.1.15,2013-06-16 11:40:00,
2013-06-16 07:50:00,77.1,75.9,30.09,East,91,1.0,1.0,96,0.00,,,0.00,Wunderground v.1.15,2013-06-16 11:50:00,
2013-06-16 07:55:00,77.4,76.2,30.09,East,99,0.0,1.0,96,0.00,,,0.00,Wunderground v.1.15,2013-06-16 11:55:00,
2013-06-16 08:00:00,77.7,76.5,30.09,ESE,105,0.0,1.0,96,0.00,,,0.00,Wunderground v.1.15,2013-06-16 12:00:00,
2013-06-16 08:05:00,78.0,76.5,30.09,ENE,77,0.0,1.0,95,0.00,,,0.00,Wunderground v.1.15,2013-06-16 12:05:00,
2013-06-16 08:10:00,78.5,76.9,30.09,ENE,77,0.0,0.0,95,0.00,,,0.00,Wunderground v.1.15,2013-06-16 12:10:00,
2013-06-16 08:20:00,79.8,77.6,30.09,East,91,0.0,0.0,93,0.00,,,0.00,Wunderground v.1.15,2013-06-16 12:20:00,
2013-06-16 08:25:00,80.5,77.6,30.09,ENE,65,0.0,0.0,91,0.00,,,0.00,Wunderground v.1.15,2013-06-16 12:25:00,
2013-06-16 08:30:00,81.3,78.1,30.10,ENE,64,0.0,0.0,90,0.00,,,0.00,Wunderground v.1.15,2013-06-16 12:30:00,
2013-06-16 08:40:00,82.4,78.1,30.10,East,84,0.0,0.0,87,0.00,,,0.00,Wunderground v.1.15,2013-06-16 12:40:00,
2013-06-16 08:45:00,82.7,77.7,30.10,NE,55,0.0,1.0,85,0.00,,,0.00,Wunderground v.1.15,2013-06-16 12:45:00,
2013-06-16 08:50:00,83.1,78.1,30.10,ENE,63,0.0,0.0,85,0.00,,,0.00,Wunderground v.1.15,2013-06-16 12:50:00,
2013-06-16 08:58:00,83.7,78.0,30.10,ENE,73,0.0,2.0,83,0.00,,,0.00,weatherlink.com 1.10,2013-06-16 12:58:00,
2013-06-16 09:05:00,84.0,77.2,30.10,ENE,72,1.0,2.0,80,0.00,,,0.00,Wunderground v.1.15,2013-06-16 13:05:00,
2013-06-16 09:10:00,83.8,77.0,30.10,NE,55,1.0,1.0,80,0.00,,,0.00,Wunderground v.1.15,2013-06-16 13:10:00,
2013-06-16 09:15:00,83.6,76.8,30.10,North,5,1.0,3.0,80,0.00,,,0.00,Wunderground v.1.15,2013-06-16 13:15:00,
2013-06-16 09:20:00,83.5,77.1,30.10,ENE,63,1.0,1.0,81,0.00,,,0.00,Wunderground v.1.15,2013-06-16 13:20:00,
2013-06-16 09:25:00,84.1,78.0,30.10,East,84,1.0,1.0,82,0.00,,,0.00,Wunderground v.1.15,2013-06-16 13:25:00,
2013-06-16 09:31:00,84.9,78.0,30.10,NE,54,0.0,3.0,79,0.00,,,0.00,weatherlink.com 1.10,2013-06-16 13:31:00,
2013-06-16 09:41:00,84.9,76.9,30.10,NNE,13,1.0,5.0,77,0.00,,,0.00,Wunderground v.1.15,2013-06-16 13:41:00,
2013-06-16 09:47:00,85.0,77.0,30.10,ENE,60,0.0,4.0,77,0.00,,,0.00,weatherlink.com 1.10,2013-06-16 13:47:00,
2013-06-16 09:55:00,86.1,78.0,30.10,NE,49,1.0,2.0,77,0.00,,,0.00,Wunderground v.1.15,2013-06-16 13:55:00,
2013-06-16 10:00:00,86.3,78.2,30.10,ENE,68,1.0,1.0,77,0.00,,,0.00,Wunderground v.1.15,2013-06-16 14:00:00,
2013-06-16 10:10:00,85.7,77.3,30.10,NE,54,1.0,1.0,76,0.00,,,0.00,Wunderground v.1.15,2013-06-16 14:10:00,
2013-06-16 10:15:00,85.5,77.1,30.09,NE,40,1.0,1.0,76,0.00,,,0.00,Wunderground v.1.15,2013-06-16 14:15:00,
2013-06-16 10:20:00,85.7,77.3,30.09,ENE,59,1.0,1.0,76,0.00,,,0.00,Wunderground v.1.15,2013-06-16 14:20:00,
2013-06-16 10:25:00,86.5,78.0,30.09,East,84,0.0,1.0,76,0.00,,,0.00,Wunderground v.1.15,2013-06-16 14:25:00,
2013-06-16 10:30:00,86.9,78.0,30.09,East,84,0.0,0.0,75,0.00,,,0.00,Wunderground v.1.15,2013-06-16 14:30:00,
2013-06-16 10:36:00,87.3,78.0,30.09,ENE,72,0.0,2.0,74,0.00,,,0.00,weatherlink.com 1.10,2013-06-16 14:36:00,
2013-06-16 10:45:00,88.2,78.9,30.09,East,101,1.0,2.0,74,0.00,,,0.00,Wunderground v.1.15,2013-06-16 14:45:00,
2013-06-16 10:50:00,88.1,77.1,30.10,NNE,25,1.0,3.0,70,0.00,,,0.00,Wunderground v.1.15,2013-06-16 14:50:00,
2013-06-16 11:00:00,88.3,78.1,30.10,East,94,1.0,1.0,72,0.00,,,0.00,Wunderground v.1.15,2013-06-16 15:00:00,
2013-06-16 11:05:00,87.9,76.5,30.10,ENE,64,1.0,1.0,69,0.00,,,0.00,Wunderground v.1.15,2013-06-16 15:05:00,
2013-06-16 11:10:00,87.6,77.0,30.09,East,82,0.0,1.0,71,0.00,,,0.00,Wunderground v.1.15,2013-06-16 15:10:00,
2013-06-16 11:15:00,87.8,76.8,30.09,East,80,0.0,1.0,70,0.00,,,0.00,Wunderground v.1.15,2013-06-16 15:15:00,
2013-06-16 11:20:00,88.0,77.8,30.09,ESE,115,0.0,1.0,72,0.00,,,0.00,Wunderground v.1.15,2013-06-16 15:20:00,
2013-06-16 11:30:00,88.0,76.5,30.09,NNE,32,1.0,1.0,69,0.00,,,0.00,Wunderground v.1.15,2013-06-16 15:30:00,
2013-06-16 11:35:00,88.3,76.8,30.09,ESE,118,1.0,1.0,69,0.00,,,0.00,Wunderground v.1.15,2013-06-16 15:35:00,
2013-06-16 11:40:00,88.9,78.3,30.09,NE,49,1.0,1.0,71,0.00,,,0.00,Wunderground v.1.15,2013-06-16 15:40:00,
2013-06-16 11:45:00,90.2,77.3,30.09,NNE,33,2.0,2.0,66,0.00,,,0.00,Wunderground v.1.15,2013-06-16 15:45:00,
2013-06-16 11:50:00,90.7,77.3,30.09,NE,41,2.0,3.0,65,0.00,,,0.00,Wunderground v.1.15,2013-06-16 15:50:00,
2013-06-16 11:58:00,90.8,77.0,30.09,NNE,33,3.0,4.0,65,0.00,,,0.00,weatherlink.com 1.10,2013-06-16 15:58:00,
2013-06-16 12:05:00,91.1,78.2,30.09,ESE,105,1.0,3.0,66,0.00,,,0.00,Wunderground v.1.15,2013-06-16 16:05:00,
2013-06-16 12:10:00,90.1,76.7,30.09,ESE,103,1.0,1.0,65,0.00,,,0.00,Wunderground v.1.15,2013-06-16 16:10:00,
2013-06-16 12:20:00,89.1,77.6,30.09,ENE,66,0.0,0.0,69,0.00,,,0.00,Wunderground v.1.15,2013-06-16 16:20:00,
2013-06-16 12:25:00,88.9,77.8,30.09,ENE,74,0.0,0.0,70,0.00,,,0.00,Wunderground v.1.15,2013-06-16 16:25:00,
2013-06-16 12:30:00,88.9,77.0,30.09,ENE,74,0.0,0.0,68,0.00,,,0.00,Wunderground v.1.15,2013-06-16 16:30:00,
2013-06-16 12:35:00,88.7,76.3,30.09,ESE,105,0.0,0.0,67,0.00,,,0.00,Wunderground v.1.15,2013-06-16 16:35:00,
2013-06-16 12:40:00,89.4,78.3,30.09,NNE,20,1.0,3.0,70,0.00,,,0.00,Wunderground v.1.15,2013-06-16 16:40:00,
2013-06-16 12:45:00,89.6,77.6,30.09,ENE,71,1.0,3.0,68,0.00,,,0.00,Wunderground v.1.15,2013-06-16 16:45:00,
2013-06-16 12:55:00,89.0,78.4,30.09,ENE,78,0.0,2.0,71,0.00,,,0.00,Wunderground v.1.15,2013-06-16 16:55:00,
2013-06-16 13:00:00,89.4,77.4,30.09,ESE,110,0.0,2.0,68,0.00,,,0.00,Wunderground v.1.15,2013-06-16 17:00:00,
2013-06-16 13:05:00,88.9,77.4,30.08,ESE,108,1.0,2.0,69,0.00,,,0.00,Wunderground v.1.15,2013-06-16 17:05:00,
2013-06-16 13:10:00,89.8,77.4,30.08,ENE,60,1.0,1.0,67,0.00,,,0.00,Wunderground v.1.15,2013-06-16 17:10:00,
2013-06-16 13:15:00,90.7,77.3,30.08,NNE,15,1.0,2.0,65,0.00,,,0.00,Wunderground v.1.15,2013-06-16 17:15:00,
2013-06-16 13:25:00,91.3,76.5,30.08,NE,50,1.0,2.0,62,0.00,,,0.00,Wunderground v.1.15,2013-06-16 17:25:00,
2013-06-16 13:30:00,91.7,76.8,30.08,ENE,68,1.0,1.0,62,0.00,,,0.00,Wunderground v.1.15,2013-06-16 17:30:00,
2013-06-16 13:35:00,92.1,75.7,30.08,NE,40,1.0,2.0,59,0.00,,,0.00,Wunderground v.1.15,2013-06-16 17:35:00,
2013-06-16 13:40:00,92.4,76.0,30.08,East,89,2.0,2.0,59,0.00,,,0.00,Wunderground v.1.15,2013-06-16 17:40:00,
2013-06-16 13:45:00,92.3,76.9,30.08,East,101,1.0,2.0,61,0.00,,,0.00,Wunderground v.1.15,2013-06-16 17:45:00,
2013-06-16 13:52:00,91.8,76.0,30.08,ESE,104,1.0,3.0,60,0.00,,,0.00,weatherlink.com 1.10,2013-06-16 17:52:00,
2013-06-16 14:00:00,91.1,77.7,30.08,ENE,75,1.0,1.0,65,0.00,,,0.00,Wunderground v.1.15,2013-06-16 18:00:00,
2013-06-16 14:05:00,91.3,75.5,30.07,ESE,109,1.0,4.0,60,0.00,,,0.00,Wunderground v.1.15,2013-06-16 18:05:00,
2013-06-16 14:10:00,91.3,76.0,30.07,ENE,58,1.0,1.0,61,0.00,,,0.00,Wunderground v.1.15,2013-06-16 18:10:00,
2013-06-16 14:15:00,91.8,75.9,30.07,ENE,73,1.0,1.0,60,0.00,,,0.00,Wunderground v.1.15,2013-06-16 18:15:00,
2013-06-16 14:24:00,91.1,77.0,30.07,ENE,70,0.0,2.0,63,0.00,,,0.00,weatherlink.com 1.10,2013-06-16 18:24:00,
2013-06-16 14:30:00,91.0,78.5,30.06,SE,128,0.0,2.0,67,0.00,,,0.00,Wunderground v.1.15,2013-06-16 18:30:00,
2013-06-16 14:35:00,91.3,77.4,30.06,ESE,104,1.0,2.0,64,0.00,,,0.00,Wunderground v.1.15,2013-06-16 18:35:00,
2013-06-16 14:40:00,91.3,75.0,30.06,ESE,105,1.0,3.0,59,0.00,,,0.00,Wunderground v.1.15,2013-06-16 18:40:00,
2013-06-16 14:45:00,91.7,76.8,30.06,East,86,1.0,3.0,62,0.00,,,0.00,Wunderground v.1.15,2013-06-16 18:45:00,
2013-06-16 14:50:00,92.3,74.3,30.06,East,90,1.0,1.0,56,0.00,,,0.00,Wunderground v.1.15,2013-06-16 18:50:00,
2013-06-16 14:57:00,92.5,76.0,30.05,NE,49,2.0,4.0,58,0.00,,,0.00,weatherlink.com 1.10,2013-06-16 18:57:00,
2013-06-16 15:05:00,93.2,76.7,30.05,ENE,64,2.0,3.0,59,0.00,,,0.00,Wunderground v.1.15,2013-06-16 19:05:00,
2013-06-16 15:10:00,93.3,75.3,30.04,ENE,62,1.0,1.0,56,0.00,,,0.00,Wunderground v.1.15,2013-06-16 19:10:00,
2013-06-16 15:20:00,93.6,76.6,30.04,ENE,57,1.0,1.0,58,0.00,,,0.00,Wunderground v.1.15,2013-06-16 19:20:00,
2013-06-16 15:25:00,93.6,76.6,30.04,ENE,70,1.0,1.0,58,0.00,,,0.00,Wunderground v.1.15,2013-06-16 19:25:00,
2013-06-16 15:30:00,93.6,74.5,30.04,ENE,74,1.0,1.0,54,0.00,,,0.00,Wunderground v.1.15,2013-06-16 19:30:00,
2013-06-16 15:35:00,93.6,76.1,30.05,ESE,109,1.0,1.0,57,0.00,,,0.00,Wunderground v.1.15,2013-06-16 19:35:00,
2013-06-16 15:40:00,92.7,75.2,30.05,ESE,105,1.0,1.0,57,0.00,,,0.00,Wunderground v.1.15,2013-06-16 19:40:00,
2013-06-16 15:46:00,91.7,76.0,30.04,NE,55,0.0,3.0,60,0.00,,,0.00,weatherlink.com 1.10,2013-06-16 19:46:00,
2013-06-16 15:55:00,91.7,76.8,30.04,East,101,0.0,2.0,62,0.00,,,0.00,Wunderground v.1.15,2013-06-16 19:55:00,
2013-06-16 16:00:00,91.9,75.5,30.04,NE,39,0.0,2.0,59,0.00,,,0.00,Wunderground v.1.15,2013-06-16 20:00:00,
2013-06-16 16:05:00,92.4,75.0,30.03,ENE,64,1.0,2.0,57,0.00,,,0.00,Wunderground v.1.15,2013-06-16 20:05:00,
2013-06-16 16:10:00,92.5,74.5,30.03,NE,56,1.0,1.0,56,0.00,,,0.00,Wunderground v.1.15,2013-06-16 20:10:00,
2013-06-16 16:19:00,92.7,79.0,30.02,ENE,61,0.0,3.0,65,0.00,,,0.00,weatherlink.com 1.10,2013-06-16 20:19:00,
2013-06-16 16:25:00,93.0,76.6,30.02,ENE,70,1.0,1.0,59,0.00,,,0.00,Wunderground v.1.15,2013-06-16 20:25:00,
2013-06-16 16:30:00,93.2,75.7,30.02,NE,51,1.0,1.0,57,0.00,,,0.00,Wunderground v.1.15,2013-06-16 20:30:00,
2013-06-16 16:35:00,93.3,77.3,30.02,ENE,70,0.0,1.0,60,0.00,,,0.00,Wunderground v.1.15,2013-06-16 20:35:00,
2013-06-16 16:40:00,93.1,75.1,30.02,NE,47,1.0,1.0,56,0.00,,,0.00,Wunderground v.1.15,2013-06-16 20:40:00,
2013-06-16 16:50:00,92.1,78.2,30.02,East,86,1.0,1.0,64,0.00,,,0.00,Wunderground v.1.15,2013-06-16 20:50:00,
2013-06-16 16:55:00,91.8,77.9,30.02,NNE,18,0.0,1.0,64,0.00,,,0.00,Wunderground v.1.15,2013-06-16 20:55:00,
2013-06-16 17:00:00,91.3,76.5,30.02,ENE,73,1.0,1.0,62,0.00,,,0.00,Wunderground v.1.15,2013-06-16 21:00:00,
2013-06-16 17:05:00,90.9,77.0,30.02,East,80,1.0,1.0,64,0.00,,,0.00,Wunderground v.1.15,2013-06-16 21:05:00,
2013-06-16 17:10:00,90.9,78.0,30.02,NNE,32,1.0,3.0,66,0.00,,,0.00,Wunderground v.1.15,2013-06-16 21:10:00,
2013-06-16 17:20:00,91.3,76.9,30.02,East,96,1.0,1.0,63,0.00,,,0.00,Wunderground v.1.15,2013-06-16 21:20:00,
2013-06-16 17:25:00,90.9,77.0,30.02,ENE,68,0.0,1.0,64,0.00,,,0.00,Wunderground v.1.15,2013-06-16 21:25:00,
2013-06-16 17:30:00,90.4,76.6,30.02,East,101,1.0,1.0,64,0.00,,,0.00,Wunderground v.1.15,2013-06-16 21:30:00,
2013-06-16 17:35:00,90.1,76.3,30.02,NNE,32,1.0,2.0,64,0.00,,,0.00,Wunderground v.1.15,2013-06-16 21:35:00,
2013-06-16 17:40:00,90.1,77.2,30.01,East,81,1.0,1.0,66,0.00,,,0.00,Wunderground v.1.15,2013-06-16 21:40:00,
2013-06-16 17:45:00,89.7,76.4,30.02,NNW,335,1.0,2.0,65,0.00,,,0.00,Wunderground v.1.15,2013-06-16 21:45:00,
2013-06-16 17:55:00,89.6,77.2,30.02,ENE,72,1.0,1.0,67,0.00,,,0.00,Wunderground v.1.15,2013-06-16 21:55:00,
2013-06-16 18:01:00,89.7,77.3,30.02,NE,47,1.0,2.0,67,0.00,,,0.00,Wunderground v.1.15,2013-06-16 22:01:00,
2013-06-16 18:10:00,88.6,77.1,30.03,ENE,68,1.0,1.0,69,0.00,,,0.00,Wunderground v.1.15,2013-06-16 22:10:00,
2013-06-16 18:20:00,87.4,76.4,30.03,ENE,63,1.0,1.0,70,0.00,,,0.00,Wunderground v.1.15,2013-06-16 22:20:00,
2013-06-16 18:25:00,86.9,76.4,30.03,NNW,340,1.0,2.0,71,0.00,,,0.00,Wunderground v.1.15,2013-06-16 22:25:00,
2013-06-16 18:30:00,86.5,76.8,30.02,ENE,65,1.0,1.0,73,0.00,,,0.00,Wunderground v.1.15,2013-06-16 22:30:00,
2013-06-16 18:35:00,86.3,77.0,30.02,NNE,27,1.0,2.0,74,0.00,,,0.00,Wunderground v.1.15,2013-06-16 22:35:00,
2013-06-16 18:40:00,86.2,76.9,30.02,ENE,69,1.0,1.0,74,0.00,,,0.00,Wunderground v.1.15,2013-06-16 22:40:00,
2013-06-16 18:46:00,86.1,78.0,30.02,East,85,0.0,3.0,76,0.00,,,0.00,weatherlink.com 1.10,2013-06-16 22:46:00,
2013-06-16 18:55:00,86.1,77.6,30.02,ESE,110,1.0,2.0,76,0.00,,,0.00,Wunderground v.1.15,2013-06-16 22:55:00,
2013-06-16 19:00:00,85.6,77.2,30.02,ESE,106,2.0,2.0,76,0.00,,,0.00,Wunderground v.1.15,2013-06-16 23:00:00,
2013-06-16 19:10:00,84.9,77.3,30.03,ENE,73,1.0,1.0,78,0.00,,,0.00,Wunderground v.1.15,2013-06-16 23:10:00,
2013-06-16 19:15:00,84.6,77.4,30.03,East,87,1.0,1.0,79,0.00,,,0.00,Wunderground v.1.15,2013-06-16 23:15:00,
2013-06-16 19:20:00,84.3,77.5,30.03,East,94,1.0,1.0,80,0.00,,,0.00,Wunderground v.1.15,2013-06-16 23:20:00,
2013-06-16 19:30:00,83.9,77.1,30.03,East,94,1.0,1.0,80,0.00,,,0.00,Wunderground v.1.15,2013-06-16 23:30:00,
2013-06-16 19:35:00,83.8,77.0,30.04,East,98,1.0,1.0,80,0.00,,,0.00,Wunderground v.1.15,2013-06-16 23:35:00,
2013-06-16 19:40:00,83.6,76.8,30.03,East,100,1.0,1.0,80,0.00,,,0.00,Wunderground v.1.15,2013-06-16 23:40:00,
2013-06-16 19:45:00,83.3,76.9,30.03,East,96,1.0,1.0,81,0.00,,,0.00,Wunderground v.1.15,2013-06-16 23:45:00,
2013-06-16 19:50:00,83.1,76.7,30.03,East,79,1.0,1.0,81,0.00,,,0.00,Wunderground v.1.15,2013-06-16 23:50:00,
2013-06-16 20:00:00,82.9,76.8,30.04,ENE,63,1.0,1.0,82,0.00,,,0.00,Wunderground v.1.15,2013-06-17 00:00:00,
2013-06-16 20:05:00,82.7,77.0,30.03,NW,305,0.0,3.0,83,0.00,,,0.00,Wunderground v.1.15,2013-06-17 00:05:00,
2013-06-16 20:10:00,82.5,76.8,30.04,ENE,63,0.0,1.0,83,0.00,,,0.00,Wunderground v.1.15,2013-06-17 00:10:00,
2013-06-16 20:15:00,82.4,76.3,30.03,East,86,0.0,1.0,82,0.00,,,0.00,Wunderground v.1.15,2013-06-17 00:15:00,
2013-06-16 20:20:00,82.3,76.3,30.03,East,82,0.0,0.0,82,0.00,,,0.00,Wunderground v.1.15,2013-06-17 00:20:00,
2013-06-16 20:30:00,82.4,76.3,30.04,East,91,1.0,1.0,82,0.00,,,0.00,Wunderground v.1.15,2013-06-17 00:30:00,
2013-06-16 20:35:00,82.3,76.3,30.05,ENE,65,0.0,1.0,82,0.00,,,0.00,Wunderground v.1.15,2013-06-17 00:35:00,
2013-06-16 20:40:00,82.2,76.2,30.04,ENE,72,0.0,0.0,82,0.00,,,0.00,Wunderground v.1.15,2013-06-17 00:40:00,
2013-06-16 20:45:00,82.0,76.0,30.05,ENE,63,0.0,0.0,82,0.00,,,0.00,Wunderground v.1.15,2013-06-17 00:45:00,
2013-06-16 20:50:00,81.9,75.9,30.06,NE,51,0.0,2.0,82,0.00,,,0.00,Wunderground v.1.15,2013-06-17 00:50:00,
2013-06-16 20:57:00,82.0,76.0,30.07,ENE,67,0.0,2.0,82,0.00,,,0.00,weatherlink.com 1.10,2013-06-17 00:57:00,
2013-06-16 21:05:00,81.9,75.9,30.07,NNE,32,1.0,3.0,82,0.00,,,0.00,Wunderground v.1.15,2013-06-17 01:05:00,
2013-06-16 21:10:00,82.0,76.0,30.08,NE,44,1.0,2.0,82,0.00,,,0.00,Wunderground v.1.15,2013-06-17 01:10:00,
2013-06-16 21:15:00,82.0,75.6,30.09,NNE,23,3.0,3.0,81,0.00,,,0.00,Wunderground v.1.15,2013-06-17 01:15:00,
2013-06-16 21:20:00,81.6,75.6,30.09,SSE,151,2.0,2.0,82,0.00,,,0.00,Wunderground v.1.15,2013-06-17 01:20:00,
2013-06-16 21:25:00,80.8,75.5,30.09,North,353,1.0,5.0,84,0.00,,,0.00,Wunderground v.1.15,2013-06-17 01:25:00,
2013-06-16 21:35:00,79.0,75.5,30.08,East,82,1.0,1.0,89,0.00,,,0.01,Wunderground v.1.15,2013-06-17 01:35:00,
2013-06-16 21:40:00,78.4,75.2,30.08,East,82,0.0,0.0,90,0.00,,,0.01,Wunderground v.1.15,2013-06-17 01:40:00,
2013-06-16 21:45:00,77.9,75.1,30.07,East,93,0.0,0.0,91,0.00,,,0.01,Wunderground v.1.15,2013-06-17 01:45:00,
2013-06-16 21:50:00,77.5,75.0,30.07,East,93,0.0,0.0,92,0.00,,,0.01,Wunderground v.1.15,2013-06-17 01:50:00,
2013-06-16 21:55:00,77.4,75.2,30.07,East,93,0.0,0.0,93,0.00,,,0.02,Wunderground v.1.15,2013-06-17 01:55:00,
2013-06-16 22:00:00,77.3,75.1,30.06,East,94,0.0,0.0,93,0.00,,,0.02,Wunderground v.1.15,2013-06-17 02:00:00,
2013-06-16 22:05:00,77.2,75.3,30.06,East,94,0.0,0.0,94,0.00,,,0.02,Wunderground v.1.15,2013-06-17 02:05:00,
2013-06-16 22:15:00,77.1,75.2,30.07,East,93,0.0,0.0,94,0.00,,,0.02,Wunderground v.1.15,2013-06-17 02:15:00,
2013-06-16 22:20:00,77.4,75.9,30.07,ESE,105,0.0,0.0,95,0.00,,,0.02,Wunderground v.1.15,2013-06-17 02:20:00,
2013-06-16 22:25:00,77.4,75.9,30.08,ESE,104,1.0,1.0,95,0.00,,,0.02,Wunderground v.1.15,2013-06-17 02:25:00,
2013-06-16 22:30:00,77.2,75.7,30.08,ESE,105,0.0,0.0,95,0.00,,,0.02,Wunderground v.1.15,2013-06-17 02:30:00,
2013-06-16 22:40:00,77.2,75.7,30.08,ESE,103,1.0,2.0,95,0.00,,,0.02,Wunderground v.1.15,2013-06-17 02:40:00,
2013-06-16 22:45:00,77.2,76.0,30.09,ESE,106,1.0,4.0,96,0.00,,,0.02,Wunderground v.1.15,2013-06-17 02:45:00,
2013-06-16 22:50:00,77.4,76.2,30.09,ESE,117,2.0,3.0,96,0.00,,,0.03,Wunderground v.1.15,2013-06-17 02:50:00,
2013-06-16 22:55:00,77.3,75.8,30.10,ESE,112,4.0,4.0,95,0.11,,,0.04,Wunderground v.1.15,2013-06-17 02:55:00,
2013-06-16 23:00:00,77.2,76.0,30.10,ESE,109,4.0,4.0,96,0.08,,,0.04,Wunderground v.1.15,2013-06-17 03:00:00,
2013-06-16 23:05:00,77.4,76.5,30.09,ESE,107,3.0,4.0,97,1.20,,,0.14,Wunderground v.1.15,2013-06-17 03:05:00,
2013-06-16 23:15:00,76.6,75.4,30.10,ESE,108,2.0,3.0,96,0.39,,,0.25,Wunderground v.1.15,2013-06-17 03:15:00,
2013-06-16 23:20:00,76.9,76.0,30.09,ESE,103,2.0,4.0,97,0.55,,,0.29,Wunderground v.1.15,2013-06-17 03:20:00,
2013-06-16 23:25:00,77.0,76.1,30.09,ESE,103,4.0,7.0,97,0.12,,,0.30,Wunderground v.1.15,2013-06-17 03:25:00,
2013-06-16 23:30:00,76.9,75.7,30.09,ESE,108,4.0,6.0,96,0.06,,,0.30,Wunderground v.1.15,2013-06-17 03:30:00,
2013-06-16 23:39:00,77.0,76.0,30.09,ESE,120,5.0,9.0,96,0.29,,,0.31,weatherlink.com 1.10,2013-06-17 03:39:00,
2013-06-16 23:45:00,77.1,75.9,30.08,East,86,4.0,7.0,96,0.04,,,0.31,Wunderground v.1.15,2013-06-17 03:45:00,
2013-06-16 23:50:00,76.8,75.6,30.09,ESE,103,2.0,2.0,96,0.98,,,0.35,Wunderground v.1.15,2013-06-17 03:50:00,
2013-06-16 23:55:00,76.6,75.4,30.09,ENE,77,1.0,2.0,96,2.91,,,0.60,Wunderground v.1.15,2013-06-17 03:55:00,